START_TIME,STEP,MOV.,M15,t_acc.,M20,t_acc.
1979-07-06 00:00:44.610 ,0,0,0.,24.0,0.,24.0
1979-07-06 00:01:08.610 ,1,1,0.,24.0,0.,24.0
1979-07-06 00:01:32.610 ,1,0,0.,24.0,0.,24.0
1979-07-06 00:01:56.610 ,2,1,0.,24.0,0.,24.0
1979-07-06 00:02:20.610 ,2,0,0.,24.0,0.,24.0
1979-07-06 00:02:44.610 ,3,1,0.,24.0,0.,24.0
1979-07-06 00:03:08.610 ,3,0,0.,24.0,0.,24.0
1979-07-06 00:03:32.610 ,4,1,0.,24.0,0.,24.0
1979-07-06 00:03:56.610 ,4,0,0.,24.0,0.,24.0
1979-07-06 00:04:20.610 ,5,1,0.,24.0,0.,24.0
1979-07-06 00:04:44.610 ,5,0,0.,24.0,0.,24.0
1979-07-06 00:05:08.610 ,6,1,0.,24.0,0.,24.0
1979-07-06 00:05:32.610 ,6,0,0.,24.0,0.,24.0
1979-07-06 00:05:56.610 ,7,1,0.,24.0,0.,24.0
1979-07-06 00:06:20.610 ,7,0,0.,24.0,0.,24.0
1979-07-06 00:06:44.610 ,7,1,0.,24.0,0.,24.0
1979-07-06 00:07:08.610 ,7,0,0.,24.0,0.,24.0
1979-07-06 00:07:32.610 ,6,1,0.,24.0,0.,24.0
1979-07-06 00:07:56.610 ,6,0,0.,24.0,0.,24.0
1979-07-06 00:08:20.610 ,5,1,0.,24.0,0.,24.0
1979-07-06 00:08:44.610 ,5,0,0.,24.0,0.,24.0
1979-07-06 00:09:08.610 ,4,1,0.,24.0,0.,24.0
1979-07-06 00:09:32.610 ,4,0,0.,24.0,0.,24.0
1979-07-06 00:09:56.610 ,3,1,0.,24.0,0.,24.0
1979-07-06 00:10:20.610 ,3,0,0.,24.0,0.,24.0
1979-07-06 00:10:44.610 ,2,1,0.,24.0,0.,24.0
1979-07-06 00:11:08.610 ,2,0,0.,24.0,0.,24.0
1979-07-06 00:11:32.610 ,1,1,0.,24.0,0.,24.0
1979-07-06 00:11:56.610 ,1,0,0.,24.0,0.,24.0
1979-07-06 00:12:20.610 ,0,1,0.,24.0,0.,24.0
1979-07-06 00:12:44.610 ,0,0,0.,24.0,0.,24.0
1979-07-06 00:13:08.610 ,0,1,0.,24.0,0.,24.0
1979-07-06 00:13:32.610 ,0,0,0.,24.0,0.,24.0
1979-07-06 00:13:56.610 ,1,1,0.,24.0,0.,24.0
1979-07-06 00:14:20.610 ,1,0,0.,24.0,0.,24.0
1979-07-06 00:14:44.610 ,2,1,0.,24.0,0.,24.0
1979-07-06 00:15:08.610 ,2,0,0.,24.0,0.,24.0
1979-07-06 00:15:32.610 ,3,1,0.,24.0,0.,24.0
1979-07-06 00:15:56.610 ,3,0,0.,24.0,0.,24.0
1979-07-06 00:16:20.610 ,4,1,0.,24.0,0.,24.0
1979-07-06 00:16:44.610 ,4,0,0.,24.0,0.,24.0
1979-07-06 00:17:08.610 ,5,1,0.,24.0,0.,24.0
1979-07-06 00:17:32.610 ,5,0,0.,24.0,0.,24.0
1979-07-06 00:17:56.610 ,6,1,0.,24.0,0.,24.0
1979-07-06 00:18:20.610 ,6,0,0.,24.0,0.,24.0
1979-07-06 00:18:44.610 ,7,0,0.,24.0,0.,24.0
1979-07-06 00:19:08.610 ,7,0,0.,24.0,0.,24.0
1979-07-06 00:19:32.610 ,3,1,0.,24.0,0.,24.0
1979-07-06 00:19:56.610 ,0,1,0.,24.0,0.,24.0
1979-07-06 00:20:20.610 ,4,1,0.,24.0,0.,24.0
1979-07-06 00:20:44.610 ,7,1,0.,24.0,0.,24.0
1979-07-06 00:21:08.610 ,3,1,0.,24.0,0.,24.0
1979-07-06 00:21:32.610 ,0,1,0.,24.0,0.,24.0
1979-07-06 00:21:56.610 ,4,1,0.,24.0,0.,24.0
1979-07-06 00:22:20.610 ,7,1,0.,24.0,0.,24.0
1979-07-06 00:22:44.610 ,3,1,0.,24.0,0.,24.0
1979-07-06 00:23:08.610 ,0,1,0.,24.0,0.,24.0
1979-07-06 00:23:32.610 ,4,1,0.,24.0,0.,24.0
1979-07-06 00:23:56.610 ,7,1,1.,24.0,0.,24.0
1979-07-06 00:24:20.610 ,3,1,0.,24.0,0.,24.0
1979-07-06 00:24:44.610 ,0,1,0.,24.0,0.,24.0
1979-07-06 00:25:08.610 ,4,1,0.,24.0,0.,24.0
1979-07-06 00:25:32.610 ,7,1,0.,24.0,0.,24.0
1979-07-06 00:25:56.610 ,3,1,0.,24.0,0.,24.0
1979-07-06 00:26:20.610 ,0,1,0.,24.0,0.,24.0
1979-07-06 00:26:44.610 ,4,1,0.,24.0,0.,24.0
1979-07-06 00:27:08.610 ,7,1,0.,24.0,0.,24.0
1979-07-06 00:27:32.610 ,3,1,1.,24.0,0.,24.0
1979-07-06 00:27:56.610 ,0,1,0.,24.0,0.,24.0
1979-07-06 00:28:20.610 ,4,1,0.,24.0,0.,24.0
1979-07-06 00:28:44.610 ,7,1,1.,24.0,0.,24.0
1979-07-06 00:29:08.610 ,3,1,0.,24.0,0.,24.0
1979-07-06 00:29:32.610 ,0,1,0.,24.0,0.,24.0
1979-07-06 00:29:56.610 ,0,0,0.,24.0,0.,24.0
1979-07-06 00:30:20.610 ,0,0,0.,24.0,0.,24.0
1979-07-06 00:30:44.610 ,5,1,0.,24.0,0.,24.0
1979-07-06 00:31:08.610 ,5,0,0.,24.0,0.,24.0
1979-07-06 00:31:32.610 ,4,1,0.,24.0,0.,24.0
1979-07-06 00:31:56.610 ,4,0,0.,24.0,0.,24.0
1979-07-06 00:32:20.610 ,3,1,0.,24.0,0.,24.0
1979-07-06 00:32:44.610 ,3,0,0.,24.0,0.,24.0
1979-07-06 00:33:08.610 ,2,1,0.,24.0,0.,24.0
1979-07-06 00:33:32.610 ,2,0,1.,24.0,0.,24.0
1979-07-06 00:33:56.610 ,1,1,0.,24.0,0.,24.0
1979-07-06 00:34:20.610 ,1,0,0.,24.0,0.,24.0
1979-07-06 00:34:44.610 ,0,1,0.,24.0,0.,24.0
1979-07-06 00:35:08.610 ,0,0,0.,24.0,0.,24.0
1979-07-06 00:35:32.610 ,0,1,0.,24.0,0.,24.0
1979-07-06 00:35:56.610 ,0,0,0.,24.0,0.,24.0
1979-07-06 00:36:20.610 ,1,1,1.,24.0,0.,24.0
1979-07-06 00:36:44.610 ,1,0,0.,24.0,0.,24.0
1979-07-06 00:37:08.610 ,2,1,0.,24.0,0.,24.0
1979-07-06 00:37:32.610 ,2,0,0.,24.0,0.,24.0
1979-07-06 00:37:56.610 ,3,1,0.,24.0,0.,24.0
1979-07-06 00:38:20.610 ,3,0,0.,24.0,0.,24.0
1979-07-06 00:38:44.610 ,4,1,0.,24.0,0.,24.0
1979-07-06 00:39:08.610 ,4,0,0.,24.0,0.,24.0
1979-07-06 00:39:32.610 ,5,1,0.,24.0,0.,24.0
1979-07-06 00:39:56.610 ,5,0,0.,24.0,0.,24.0
1979-07-06 00:40:20.610 ,6,1,0.,24.0,0.,24.0
1979-07-06 00:40:44.610 ,6,0,1.,24.0,0.,24.0
1979-07-06 00:41:08.610 ,7,1,0.,24.0,0.,24.0
1979-07-06 00:41:32.610 ,7,0,0.,24.0,0.,24.0
1979-07-06 00:41:56.610 ,7,1,0.,24.0,0.,24.0
1979-07-06 00:42:20.610 ,7,0,0.,24.0,0.,24.0
1979-07-06 00:42:44.610 ,6,1,0.,24.0,0.,24.0
1979-07-06 00:43:08.610 ,6,0,0.,24.0,0.,24.0
1979-07-06 00:43:32.610 ,5,1,0.,24.0,0.,24.0
1979-07-06 00:43:56.610 ,5,0,0.,24.0,0.,24.0
1979-07-06 00:44:20.610 ,4,1,0.,24.0,0.,24.0
1979-07-06 00:44:44.610 ,4,0,0.,24.0,0.,24.0
1979-07-06 00:45:08.610 ,3,1,0.,24.0,0.,24.0
1979-07-06 00:45:32.610 ,3,0,0.,24.0,0.,24.0
1979-07-06 00:45:56.610 ,2,1,0.,24.0,0.,24.0
1979-07-06 00:46:20.610 ,2,0,0.,24.0,0.,24.0
1979-07-06 00:46:44.600 ,1,1,0.,24.0,0.,24.0
1979-07-06 00:47:08.600 ,1,0,0.,24.0,0.,24.0
1979-07-06 00:47:32.600 ,0,1,1.,24.0,0.,24.0
1979-07-06 00:47:56.600 ,0,0,0.,24.0,0.,24.0
1979-07-06 00:48:20.600 ,0,1,0.,24.0,0.,24.0
1979-07-06 00:48:44.600 ,0,0,0.,24.0,0.,24.0
1979-07-06 00:49:08.600 ,1,1,0.,24.0,0.,24.0
1979-07-06 00:49:32.600 ,1,0,0.,24.0,0.,24.0
1979-07-06 00:49:56.600 ,2,1,0.,24.0,0.,24.0
1979-07-06 00:50:20.600 ,2,0,0.,24.0,0.,24.0
1979-07-06 00:50:44.600 ,3,1,0.,24.0,0.,24.0
1979-07-06 00:51:08.600 ,3,0,0.,24.0,0.,24.0
1979-07-06 00:51:32.600 ,4,1,1.,24.0,0.,24.0
1979-07-06 00:51:56.600 ,4,0,1.,24.0,0.,24.0
1979-07-06 00:52:20.600 ,5,1,0.,24.0,0.,24.0
1979-07-06 00:52:44.600 ,5,0,0.,24.0,0.,24.0
1979-07-06 00:53:08.600 ,6,1,0.,24.0,0.,24.0
1979-07-06 00:53:32.600 ,6,0,0.,24.0,0.,24.0
1979-07-06 00:53:56.600 ,7,1,0.,24.0,0.,24.0
1979-07-06 00:54:20.600 ,7,0,0.,24.0,0.,24.0
1979-07-06 00:54:44.600 ,7,1,0.,24.0,0.,24.0
1979-07-06 00:55:08.600 ,7,0,0.,24.0,0.,24.0
1979-07-06 00:55:32.600 ,6,1,0.,24.0,0.,24.0
1979-07-06 00:55:56.600 ,6,0,0.,24.0,0.,24.0
1979-07-06 00:56:20.600 ,5,1,0.,24.0,0.,24.0
1979-07-06 00:56:44.600 ,5,0,0.,24.0,0.,24.0
1979-07-06 00:57:08.600 ,4,1,0.,24.0,0.,24.0
1979-07-06 00:57:32.600 ,4,0,0.,24.0,0.,24.0
1979-07-06 00:57:56.600 ,3,1,0.,24.0,0.,24.0
1979-07-06 00:58:20.600 ,3,0,0.,24.0,0.,24.0
1979-07-06 00:58:44.600 ,2,1,0.,24.0,0.,24.0
1979-07-06 00:59:08.600 ,2,0,0.,24.0,0.,24.0
1979-07-06 00:59:32.600 ,1,1,1.,24.0,0.,24.0
1979-07-06 00:59:56.600 ,1,0,0.,24.0,0.,24.0
1979-07-06 01:00:20.610 ,0,1,0.,24.0,0.,24.0
1979-07-06 01:00:44.610 ,0,0,0.,24.0,0.,24.0
1979-07-06 01:01:08.610 ,0,1,0.,24.0,0.,24.0
1979-07-06 01:01:32.610 ,0,0,0.,24.0,0.,24.0
1979-07-06 01:01:56.610 ,1,1,0.,24.0,0.,24.0
1979-07-06 01:02:20.610 ,1,0,0.,24.0,0.,24.0
1979-07-06 01:02:44.610 ,2,1,0.,24.0,0.,24.0
1979-07-06 01:03:08.610 ,2,0,0.,24.0,0.,24.0
1979-07-06 01:03:32.610 ,3,1,1.,24.0,0.,24.0
1979-07-06 01:03:56.610 ,3,0,0.,24.0,0.,24.0
1979-07-06 01:04:20.610 ,4,1,0.,24.0,0.,24.0
1979-07-06 01:04:44.610 ,4,0,0.,24.0,0.,24.0
1979-07-06 01:05:08.600 ,5,1,0.,24.0,0.,24.0
1979-07-06 01:05:32.610 ,5,0,0.,24.0,0.,24.0
1979-07-06 01:05:56.610 ,6,1,0.,24.0,0.,24.0
1979-07-06 01:06:20.600 ,6,0,0.,24.0,0.,24.0
1979-07-06 01:06:44.610 ,7,0,1.,24.0,0.,24.0
1979-07-06 01:07:08.600 ,7,0,1.,24.0,0.,24.0
1979-07-06 01:07:32.610 ,3,1,0.,24.0,0.,24.0
1979-07-06 01:07:56.610 ,0,1,0.,24.0,0.,24.0
1979-07-06 01:08:20.600 ,0,0,,0,,0
1979-07-06 01:08:44.600 ,0,0,,0,,0
1979-07-06 01:09:38.000 ,0,0,0.,24.0,0.,24.0
1979-07-06 01:09:56.600 ,4,1,0.,24.0,0.,24.0
1979-07-06 01:10:20.600 ,7,1,0.,24.0,0.,24.0
1979-07-06 01:10:44.600 ,3,1,0.,24.0,0.,24.0
1979-07-06 01:11:08.600 ,0,1,0.,24.0,0.,24.0
1979-07-06 01:11:32.600 ,4,1,0.,24.0,0.,24.0
1979-07-06 01:11:56.600 ,7,1,0.,24.0,0.,24.0
1979-07-06 01:12:20.600 ,3,1,1.,24.0,0.,24.0
1979-07-06 01:12:44.600 ,0,1,0.,24.0,0.,24.0
1979-07-06 01:13:08.600 ,4,1,1.,24.0,0.,24.0
1979-07-06 01:13:32.600 ,7,1,1.,24.0,0.,24.0
1979-07-06 01:13:56.600 ,3,1,0.,24.0,0.,24.0
1979-07-06 01:14:20.600 ,0,1,0.,24.0,0.,24.0
1979-07-06 01:14:44.600 ,4,1,0.,24.0,0.,24.0
1979-07-06 01:15:08.600 ,7,1,0.,24.0,0.,24.0
1979-07-06 01:15:32.600 ,3,1,0.,24.0,0.,24.0
1979-07-06 01:15:56.600 ,0,1,0.,24.0,0.,24.0
1979-07-06 01:16:20.600 ,4,1,0.,24.0,0.,24.0
1979-07-06 01:16:44.600 ,7,1,0.,24.0,0.,24.0
1979-07-06 01:17:08.600 ,3,1,1.,24.0,0.,24.0
1979-07-06 01:17:32.600 ,0,1,0.,24.0,0.,24.0
1979-07-06 01:17:56.600 ,0,0,0.,24.0,0.,24.0
1979-07-06 01:18:20.600 ,0,0,0.,24.0,0.,24.0
1979-07-06 01:18:44.600 ,5,1,0.,24.0,0.,24.0
1979-07-06 01:19:08.600 ,5,0,0.,24.0,0.,24.0
1979-07-06 01:19:32.600 ,4,1,0.,24.0,0.,24.0
1979-07-06 01:19:56.600 ,4,0,0.,24.0,0.,24.0
1979-07-06 01:20:20.600 ,3,1,0.,24.0,0.,24.0
1979-07-06 01:20:44.600 ,3,0,0.,24.0,0.,24.0
1979-07-06 01:21:08.600 ,2,1,0.,24.0,0.,24.0
1979-07-06 01:21:32.600 ,2,0,1.,24.0,0.,24.0
1979-07-06 01:21:56.600 ,1,1,0.,24.0,0.,24.0
1979-07-06 01:22:20.600 ,1,0,0.,24.0,0.,24.0
1979-07-06 01:22:44.600 ,0,1,0.,24.0,0.,24.0
1979-07-06 01:23:08.600 ,0,0,0.,24.0,0.,24.0
1979-07-06 01:23:32.600 ,0,1,0.,24.0,0.,24.0
1979-07-06 01:23:56.600 ,0,0,0.,24.0,0.,24.0
1979-07-06 01:24:20.600 ,1,1,0.,24.0,0.,24.0
1979-07-06 01:24:44.600 ,1,0,0.,24.0,0.,24.0
1979-07-06 01:25:08.600 ,2,1,0.,24.0,0.,24.0
1979-07-06 01:25:32.600 ,2,0,1.,24.0,0.,24.0
1979-07-06 01:25:56.600 ,3,1,0.,24.0,0.,24.0
1979-07-06 01:26:20.600 ,3,0,0.,24.0,0.,24.0
1979-07-06 01:26:44.600 ,4,1,0.,24.0,0.,24.0
1979-07-06 01:27:08.600 ,4,0,1.,24.0,0.,24.0
1979-07-06 01:27:32.600 ,5,1,0.,24.0,0.,24.0
1979-07-06 01:27:56.600 ,5,0,0.,24.0,0.,24.0
1979-07-06 01:28:20.600 ,6,1,0.,24.0,0.,24.0
1979-07-06 01:28:44.600 ,6,0,0.,24.0,0.,24.0
1979-07-06 01:29:08.600 ,7,1,0.,24.0,0.,24.0
1979-07-06 01:29:32.600 ,7,0,0.,24.0,0.,24.0
1979-07-06 01:29:56.600 ,7,1,0.,24.0,0.,24.0
1979-07-06 01:30:20.600 ,7,0,0.,24.0,0.,24.0
1979-07-06 01:30:44.600 ,6,1,0.,24.0,0.,24.0
1979-07-06 01:31:08.600 ,6,0,0.,24.0,0.,24.0
1979-07-06 01:31:32.600 ,5,1,0.,24.0,0.,24.0
1979-07-06 01:31:56.600 ,5,0,0.,24.0,0.,24.0
1979-07-06 01:32:20.600 ,4,1,0.,24.0,0.,24.0
1979-07-06 01:32:44.600 ,4,0,0.,24.0,0.,24.0
1979-07-06 01:33:08.600 ,3,1,1.,24.0,0.,24.0
1979-07-06 01:33:32.600 ,3,0,0.,24.0,0.,24.0
1979-07-06 01:33:56.600 ,2,1,0.,24.0,0.,24.0
1979-07-06 01:34:20.600 ,2,0,0.,24.0,0.,24.0
1979-07-06 01:34:44.600 ,1,1,0.,24.0,0.,24.0
1979-07-06 01:35:08.600 ,1,0,0.,24.0,0.,24.0
1979-07-06 01:35:32.600 ,0,1,0.,24.0,0.,24.0
1979-07-06 01:35:56.600 ,0,0,1.,24.0,0.,24.0
1979-07-06 01:36:20.600 ,0,1,0.,24.0,0.,24.0
1979-07-06 01:36:44.600 ,0,0,0.,24.0,0.,24.0
1979-07-06 01:37:08.600 ,1,1,0.,24.0,0.,24.0
1979-07-06 01:37:32.600 ,1,0,0.,24.0,0.,24.0
1979-07-06 01:37:56.600 ,2,1,0.,24.0,0.,24.0
1979-07-06 01:38:20.600 ,2,0,0.,24.0,0.,24.0
1979-07-06 01:38:44.600 ,3,1,0.,24.0,0.,24.0
1979-07-06 01:39:08.600 ,3,0,0.,24.0,0.,24.0
1979-07-06 01:39:32.600 ,4,1,1.,24.0,0.,24.0
1979-07-06 01:39:56.600 ,4,0,0.,24.0,0.,24.0
1979-07-06 01:41:08.600 ,0,0,0.,24.0,0.,24.0
1979-07-06 01:41:32.600 ,0,0,0.,24.0,0.,24.0
1979-07-06 01:41:56.600 ,7,1,0.,24.0,0.,24.0
1979-07-06 01:42:20.600 ,7,0,0.,24.0,0.,24.0
1979-07-06 01:42:44.600 ,7,1,0.,24.0,0.,24.0
1979-07-06 01:43:08.600 ,7,0,0.,24.0,0.,24.0
1979-07-06 01:43:32.600 ,6,1,0.,24.0,0.,24.0
1979-07-06 01:43:56.600 ,6,0,0.,24.0,0.,24.0
1979-07-06 01:44:20.600 ,5,1,0.,24.0,0.,24.0
1979-07-06 01:44:44.600 ,5,0,0.,24.0,0.,24.0
1979-07-06 01:45:08.600 ,4,1,0.,24.0,0.,24.0
1979-07-06 01:45:32.600 ,4,0,0.,24.0,0.,24.0
1979-07-06 01:45:56.600 ,3,1,0.,24.0,0.,24.0
1979-07-06 01:46:20.600 ,3,0,0.,24.0,0.,24.0
1979-07-06 01:46:44.600 ,2,1,0.,24.0,0.,24.0
1979-07-06 01:47:08.600 ,2,0,0.,24.0,0.,24.0
1979-07-06 01:47:32.600 ,1,1,0.,24.0,0.,24.0
1979-07-06 01:47:56.600 ,1,0,0.,24.0,0.,24.0
1979-07-06 01:48:20.600 ,0,1,0.,24.0,0.,24.0
1979-07-06 01:48:44.600 ,0,0,1.,24.0,0.,24.0
1979-07-06 01:49:08.600 ,0,1,0.,24.0,0.,24.0
1979-07-06 01:49:32.600 ,0,0,1.,24.0,0.,24.0
1979-07-06 01:49:56.600 ,1,1,0.,24.0,0.,24.0
1979-07-06 01:50:20.600 ,1,0,0.,24.0,0.,24.0
1979-07-06 01:50:44.600 ,2,1,0.,24.0,0.,24.0
1979-07-06 01:51:08.600 ,2,0,0.,24.0,0.,24.0
1979-07-06 01:51:32.600 ,3,1,0.,24.0,0.,24.0
1979-07-06 01:51:56.600 ,3,0,0.,24.0,0.,24.0
1979-07-06 01:52:20.600 ,4,1,0.,24.0,0.,24.0
1979-07-06 01:52:44.600 ,4,0,0.,24.0,0.,24.0
1979-07-06 01:54:24.800 ,0,0,0.,24.0,0.,24.0
1979-07-06 01:54:44.600 ,7,0,0.,24.0,0.,24.0
1979-07-06 01:55:08.600 ,7,0,0.,24.0,0.,24.0
1979-07-06 01:55:32.600 ,3,1,1.,24.0,0.,24.0
1979-07-06 01:55:56.600 ,0,1,0.,24.0,0.,24.0
1979-07-06 01:56:20.600 ,4,1,0.,24.0,0.,24.0
1979-07-06 01:56:44.600 ,7,1,0.,24.0,0.,24.0
1979-07-06 01:57:08.600 ,3,1,0.,24.0,0.,24.0
1979-07-06 01:57:32.600 ,0,1,0.,24.0,0.,24.0
1979-07-06 01:57:56.600 ,4,1,0.,24.0,0.,24.0
1979-07-06 01:58:20.600 ,7,1,0.,24.0,0.,24.0
1979-07-06 01:58:44.600 ,3,1,0.,24.0,0.,24.0
1979-07-06 01:59:08.600 ,0,1,0.,24.0,0.,24.0
1979-07-06 01:59:32.600 ,4,1,0.,24.0,0.,24.0
1979-07-06 01:59:56.600 ,7,1,0.,24.0,0.,24.0
1979-07-06 02:00:20.600 ,3,1,0.,24.0,0.,24.0
1979-07-06 02:00:44.600 ,0,1,0.,24.0,0.,24.0
1979-07-06 02:01:08.600 ,4,1,0.,24.0,0.,24.0
1979-07-06 02:01:32.600 ,7,1,0.,24.0,0.,24.0
1979-07-06 02:01:56.600 ,3,1,0.,24.0,0.,24.0
1979-07-06 02:02:20.600 ,0,1,0.,24.0,0.,24.0
1979-07-06 02:02:44.600 ,4,1,0.,24.0,0.,24.0
1979-07-06 02:03:08.600 ,0,0,,0,,0
1979-07-06 02:04:49.400 ,0,0,0.,24.0,0.,24.0
1979-07-06 02:05:08.600 ,3,1,0.,24.0,0.,24.0
1979-07-06 02:05:32.600 ,0,1,0.,24.0,0.,24.0
1979-07-06 02:05:56.600 ,0,0,0.,24.0,0.,24.0
1979-07-06 02:06:20.600 ,0,0,1.,24.0,0.,24.0
1979-07-06 02:06:44.600 ,5,1,0.,24.0,0.,24.0
1979-07-06 02:07:08.600 ,5,0,0.,24.0,0.,24.0
1979-07-06 02:07:32.600 ,4,1,0.,24.0,0.,24.0
1979-07-06 02:07:56.600 ,4,0,1.,24.0,0.,24.0
1979-07-06 02:08:20.600 ,3,1,0.,24.0,0.,24.0
1979-07-06 02:08:44.600 ,3,0,0.,24.0,0.,24.0
1979-07-06 02:09:08.600 ,2,1,0.,24.0,0.,24.0
1979-07-06 02:09:32.600 ,2,0,0.,24.0,0.,24.0
1979-07-06 02:09:56.600 ,1,1,0.,24.0,0.,24.0
1979-07-06 02:10:20.600 ,1,0,0.,24.0,0.,24.0
1979-07-06 02:10:44.600 ,0,1,0.,24.0,0.,24.0
1979-07-06 02:11:08.600 ,0,0,0.,24.0,0.,24.0
1979-07-06 02:11:32.600 ,0,1,0.,24.0,0.,24.0
1979-07-06 02:11:56.600 ,0,0,0.,24.0,0.,24.0
1979-07-06 02:12:20.600 ,1,1,0.,24.0,0.,24.0
1979-07-06 02:12:44.600 ,1,0,0.,24.0,0.,24.0
1979-07-06 02:13:08.600 ,2,1,1.,24.0,0.,24.0
1979-07-06 02:13:32.600 ,2,0,0.,24.0,0.,24.0
1979-07-06 02:13:56.600 ,3,1,0.,24.0,0.,24.0
1979-07-06 02:14:20.600 ,3,0,0.,24.0,0.,24.0
1979-07-06 02:14:44.600 ,4,1,0.,24.0,0.,24.0
1979-07-06 02:15:08.600 ,4,0,0.,24.0,0.,24.0
1979-07-06 02:15:32.600 ,5,1,0.,24.0,0.,24.0
1979-07-06 02:15:56.600 ,5,0,0.,24.0,0.,24.0
1979-07-06 02:16:20.600 ,6,1,0.,24.0,0.,24.0
1979-07-06 02:16:44.600 ,6,0,0.,24.0,0.,24.0
1979-07-06 02:17:08.600 ,7,1,1.,24.0,0.,24.0
1979-07-06 02:17:32.600 ,7,0,1.,24.0,0.,24.0
1979-07-06 02:17:56.600 ,7,1,0.,24.0,0.,24.0
1979-07-06 02:18:20.600 ,7,0,0.,24.0,0.,24.0
1979-07-06 02:18:44.600 ,6,1,0.,24.0,0.,24.0
1979-07-06 02:19:08.600 ,6,0,0.,24.0,0.,24.0
1979-07-06 02:19:32.600 ,5,1,0.,24.0,0.,24.0
1979-07-06 02:19:56.600 ,5,0,0.,24.0,0.,24.0
1979-07-06 02:20:20.600 ,4,1,0.,24.0,0.,24.0
1979-07-06 02:20:44.600 ,4,0,0.,24.0,0.,24.0
1979-07-06 02:21:08.600 ,3,1,0.,24.0,0.,24.0
1979-07-06 02:21:32.600 ,3,0,0.,24.0,0.,24.0
1979-07-06 02:21:56.600 ,2,1,0.,24.0,0.,24.0
1979-07-06 02:22:20.600 ,2,0,0.,24.0,0.,24.0
1979-07-06 02:22:44.600 ,1,1,0.,24.0,0.,24.0
1979-07-06 02:23:08.600 ,1,0,1.,24.0,0.,24.0
1979-07-06 02:24:20.600 ,0,0,0.,24.0,0.,24.0
1979-07-06 02:24:44.600 ,0,0,0.,24.0,0.,24.0
1979-07-06 02:25:56.600 ,0,0,0.,24.0,0.,24.0
1979-07-06 02:26:20.600 ,0,0,0.,24.0,0.,24.0
1979-07-06 02:26:44.600 ,3,1,1.,24.0,0.,24.0
1979-07-06 02:27:08.600 ,3,0,0.,24.0,0.,24.0
1979-07-06 02:27:32.600 ,4,1,0.,24.0,0.,24.0
1979-07-06 02:27:56.600 ,4,0,0.,24.0,0.,24.0
1979-07-06 02:28:20.600 ,5,1,0.,24.0,0.,24.0
1979-07-06 02:28:44.600 ,5,0,0.,24.0,0.,24.0
1979-07-06 02:29:08.600 ,0,0,0.,24.0,0.,24.0
1979-07-06 02:29:32.600 ,0,0,0.,24.0,0.,24.0
1979-07-06 02:29:56.600 ,7,1,0.,24.0,0.,24.0
1979-07-06 02:30:20.600 ,7,0,0.,24.0,0.,24.0
1979-07-06 02:30:44.600 ,7,1,0.,24.0,0.,24.0
1979-07-06 02:31:08.600 ,7,0,1.,24.0,0.,24.0
1979-07-06 02:31:32.600 ,6,1,1.,24.0,0.,24.0
1979-07-06 02:31:56.600 ,6,0,0.,24.0,0.,24.0
1979-07-06 02:32:20.600 ,5,1,1.,24.0,0.,24.0
1979-07-06 02:32:44.600 ,5,0,0.,24.0,0.,24.0
1979-07-06 02:33:08.600 ,4,1,0.,24.0,0.,24.0
1979-07-06 02:33:32.600 ,4,0,1.,24.0,0.,24.0
1979-07-06 02:33:56.600 ,3,1,0.,24.0,0.,24.0
1979-07-06 02:34:20.600 ,3,0,0.,24.0,0.,24.0
1979-07-06 02:34:44.600 ,2,1,0.,24.0,0.,24.0
1979-07-06 02:35:08.600 ,2,0,0.,24.0,0.,24.0
1979-07-06 02:35:32.600 ,1,1,0.,24.0,0.,24.0
1979-07-06 02:35:56.600 ,1,0,0.,24.0,0.,24.0
1979-07-06 02:36:20.600 ,0,1,0.,24.0,0.,24.0
1979-07-06 02:36:44.600 ,0,0,0.,24.0,0.,24.0
1979-07-06 02:37:08.600 ,0,1,0.,24.0,0.,24.0
1979-07-06 02:37:32.600 ,0,0,0.,24.0,0.,24.0
1979-07-06 02:37:56.600 ,1,1,0.,24.0,0.,24.0
1979-07-06 02:38:20.600 ,1,0,0.,24.0,0.,24.0
1979-07-06 02:38:44.600 ,2,1,0.,24.0,0.,24.0
1979-07-06 02:39:08.600 ,2,0,0.,24.0,0.,24.0
1979-07-06 02:39:32.600 ,3,1,0.,24.0,0.,24.0
1979-07-06 02:39:56.600 ,3,0,0.,24.0,0.,24.0
1979-07-06 02:40:20.600 ,4,1,0.,24.0,0.,24.0
1979-07-06 02:40:44.600 ,4,0,0.,24.0,0.,24.0
1979-07-06 02:41:08.600 ,5,1,0.,24.0,0.,24.0
1979-07-06 02:41:32.600 ,5,0,1.,24.0,0.,24.0
1979-07-06 02:41:56.600 ,6,1,0.,24.0,0.,24.0
1979-07-06 02:42:20.600 ,6,0,0.,24.0,0.,24.0
1979-07-06 02:42:44.600 ,7,0,0.,24.0,0.,24.0
1979-07-06 02:43:08.600 ,7,0,0.,24.0,0.,24.0
1979-07-06 02:43:32.600 ,3,1,0.,24.0,0.,24.0
1979-07-06 02:43:56.600 ,0,1,0.,24.0,0.,24.0
1979-07-06 02:44:20.600 ,4,1,0.,24.0,0.,24.0
1979-07-06 02:44:44.600 ,7,1,0.,24.0,0.,24.0
1979-07-06 02:45:08.600 ,3,1,0.,24.0,0.,24.0
1979-07-06 02:45:32.600 ,0,1,0.,24.0,0.,24.0
1979-07-06 02:45:56.600 ,4,1,1.,24.0,0.,24.0
1979-07-06 02:46:20.600 ,7,1,0.,24.0,0.,24.0
1979-07-06 02:46:44.600 ,3,1,0.,24.0,0.,24.0
1979-07-06 02:47:08.600 ,0,1,0.,24.0,0.,24.0
1979-07-06 02:47:32.600 ,4,1,0.,24.0,0.,24.0
1979-07-06 02:47:56.600 ,7,1,1.,24.0,0.,24.0
1979-07-06 02:48:20.600 ,3,1,0.,24.0,0.,24.0
1979-07-06 02:48:44.600 ,0,1,0.,24.0,0.,24.0
1979-07-06 02:49:08.600 ,4,1,0.,24.0,0.,24.0
1979-07-06 02:49:32.600 ,7,1,0.,24.0,0.,24.0
1979-07-06 02:49:56.600 ,3,1,0.,24.0,0.,24.0
1979-07-06 02:50:20.600 ,0,1,0.,24.0,0.,24.0
1979-07-06 02:50:44.600 ,4,1,0.,24.0,0.,24.0
1979-07-06 02:51:08.600 ,7,1,1.,24.0,0.,24.0
1979-07-06 02:52:20.600 ,0,0,0.,24.0,0.,24.0
1979-07-06 02:52:44.600 ,7,1,0.,24.0,0.,24.0
1979-07-06 02:53:08.600 ,3,1,0.,24.0,0.,24.0
1979-07-06 02:53:32.600 ,0,1,0.,24.0,0.,24.0
1979-07-06 02:53:56.600 ,0,0,0.,24.0,0.,24.0
1979-07-06 02:54:20.600 ,0,0,1.,24.0,0.,24.0
1979-07-06 02:54:44.600 ,5,1,0.,24.0,0.,24.0
1979-07-06 02:55:08.600 ,5,0,0.,24.0,0.,24.0
1979-07-06 02:55:32.600 ,4,1,0.,24.0,0.,24.0
1979-07-06 02:55:56.600 ,4,0,0.,24.0,0.,24.0
1979-07-06 02:56:20.600 ,3,1,1.,24.0,0.,24.0
1979-07-06 02:56:44.600 ,3,0,0.,24.0,0.,24.0
1979-07-06 02:57:08.600 ,2,1,0.,24.0,0.,24.0
1979-07-06 02:57:32.600 ,2,0,0.,24.0,0.,24.0
1979-07-06 02:57:56.600 ,1,1,0.,24.0,0.,24.0
1979-07-06 02:58:20.600 ,1,0,0.,24.0,0.,24.0
1979-07-06 02:58:44.600 ,0,1,0.,24.0,0.,24.0
1979-07-06 02:59:08.600 ,0,0,0.,24.0,0.,24.0
1979-07-06 02:59:32.600 ,0,1,0.,24.0,0.,24.0
1979-07-06 02:59:56.600 ,0,0,0.,24.0,0.,24.0
1979-07-06 03:00:20.600 ,1,1,0.,24.0,0.,24.0
